Terug naar catalogus

THOR ABLESTAR DEB

ActiefLEO
NORAD 48823·DEBRIS·🇺🇸 United States

Gelanceerd Jun 29, 1961 vanaf Cape Canaveral Space Force Station

Loading…

Volgende Passages (komende 24 uur)

TLE

VerouderendSource: Space-Track

Epoch: Sep 8, 2026, 22:16 UTC

1 48823U 61015NB  26251.92802550  .00000351  00000-0  13997-3 0  9996
2 48823  66.6569 135.3804 0110068  15.0002 345.4319 14.36703481669741

Volg THOR ABLESTAR DEB in realtime met AllMySat

Download on the App Store